Regional Weather Roundup
Issued by NWS

Home | Current Version | Previous Version | Graphics & Text | Print | Product List | Glossary On
Versions: 1 2 3 4 5 6 7 8 9 10 11 12 13 14 15 16 17 18 19 20 21 22 23 24 25 26 27 28 29 30 31 32 33 34 35 36 37 38 39 40 41 42 43 44 45 46 47 48 49 50
000
ASUS43 KTOP 231559
RWRKS

WEATHER ROUNDUP FOR KANSAS
NATIONAL WEATHER SERVICE GOODLAND KS
1000 AM CST FRI FEB 23 2018

NOTE:  "FAIR" INDICATES FEW OR NO CLOUDS BELOW 12,000 FEET WITH NO
SIGNIFICANT WEATHER AND/OR OBSTRUCTIONS TO VISIBILITY.

KSZ001>006-013>018-027>032-041>047-231700-
NORTHWEST KANSAS

CITY           SKY/WX    TMP DP  RH WIND       PRES   REMARKS
GOODLAND       SUNNY     24  21  88 CALM      30.16R
HAYS           CLOUDY    26  25  96 N3        30.28R
HILL CITY      CLOUDY    24  23  96 NW5       30.27R FOG
RUSSELL        CLOUDY    29  26  89 CALM      30.26S
$$

KSZ061>065-074>080-084>089-231700-
SOUTHWEST KANSAS

CITY           SKY/WX    TMP DP  RH WIND       PRES   REMARKS
DODGE CITY     FOG       29  27  92 E8        30.23R VSB 1
GARDEN CITY    CLOUDY    27  27 100 E10       30.20R WCI  17
GREAT BEND     CLOUDY    27  26  96 E3        30.28
LIBERAL        LGT SNOW  29  28  96 E8        30.20  VSB 3/4
$$

KSZ066>073-081>083-090>101-231700-
SOUTHEAST KANSAS

CITY           SKY/WX    TMP DP  RH WIND       PRES   REMARKS
CHANUTE        CLOUDY    38  34  85 N5        30.30F
COFFEYVILLE    CLOUDY    38  36  92 NE3       30.30F
HUTCHINSON     CLOUDY    30  28  92 E9        30.29R
MEDICINE LODGE   N/A     32  31  96 E3        30.26F
NEWTON         CLOUDY    29  27  92 NE9       30.29S
PARSONS        CLOUDY    37  36  96 CALM      30.31S
WICHITA INTL   CLOUDY    33  31  92 NE8       30.28R
WICHITA JABRA  CLOUDY    32  31  96 NE7       30.29R
WICHITA MCCONL CLOUDY    32  31  95 E3        30.28R
WINFIELD       CLOUDY    34  34 100 NE7       30.29S
$$

KSZ007>012-019>026-033>040-048>060-102>105-231700-
NORTHEAST KANSAS

CITY           SKY/WX    TMP DP  RH WIND       PRES   REMARKS
CONCORDIA      SUNNY     29  24  82 CALM      30.29R
EMPORIA        CLOUDY    32  28  85 N6        30.29F
LAWRENCE       CLOUDY    34  31  88 CALM      30.33R
MANHATTAN      CLOUDY    31  26  82 NE5       30.31S
OLATHE IND     CLOUDY    33  30  88 N5        30.32R
OLATHE EXE     CLOUDY    32  31  96 N8        30.31R
SALINA         CLOUDY    33  28  81 VRB6      30.31S
TOPEKA BILLARD PTSUNNY   35  28  75 NW6       30.32S
TOPEKA FORBES  CLOUDY    34  29  82 NE3       30.31R
$$




USA.gov is the U.S. government's official web portal to all federal, state and local government web resources and services.